Flag for Pakistan Weather past 2 weeks in Lahore, Pakistan

Now
88 °F

Passing clouds.


Feels Like: 100 °F
Forecast: 74 / 93 °F
Wind: 5 mph from Southeast

Location: Lahore Airport

Current Time: Sep 16, 2014 at 7:13:05 PM

Latest Report: Sep 16, 2014 at 6:25 PM


Visibility: 3 mi

Pressure: 29.62 "Hg

Humidity: 70%

Dew point: 77 °F

Location of LahoreLocation

Historic Weather in Lahore — Graph

°F

Lahore temperature yesterday

Maximum temperature yesterday: 93 °F (at 2:55 PM)
Minimum temperature yesterday: 72 °F (at 5:00 AM)
Average temperature yesterday: 83 °F

Past Weeks' High & Low Weather Summary

 TemperatureHumidityPressure
High95 °F (Sep 11, 1:25 PM)100% (Sep 3, 11:55 PM)29.86 "Hg (Sep 3, 11:55 PM)
Low72 °F (Sep 4, 2:55 AM)49% (Sep 15, 3:55 PM)29.36 "Hg (Sep 5, 5:00 PM)
Average81 °F79%29.66 "Hg
* Reported Sep 1 5:55 PM — Sep 16 5:55 PM, Lahore, Weather by CustomWeather, © 2014

Note: Actual official high and low records may vary slightly from our data, if they occured in-between our weather recording intervals... More about our weather records

Advertising

Lahore weather history for previous 24 hours

 ConditionsComfort  
Time TempWeatherWind HumidityBarometerVisibility
5:55 PM
Sep 16
88 °FScattered clouds.5 mph70%29.59 "Hg3 mi
5:25 PM90 °FScattered clouds.5 mph67%29.59 "Hg3 mi
4:55 PM90 °FScattered clouds.6 mph67%29.62 "Hg3 mi
4:25 PM91 °FScattered clouds.5 mph63%29.62 "Hg3 mi
3:59 PM91 °FScattered clouds.7 mph63%29.62 "Hg3 mi
3:25 PM91 °FScattered clouds.5 mph63%29.62 "Hg3 mi
2:59 PM91 °FScattered clouds.No wind63%29.62 "Hg3 mi
2:29 PM93 °FScattered clouds.5 mph59%29.62 "Hg4 mi
1:59 PM93 °FScattered clouds.5 mph56%29.65 "Hg4 mi
1:29 PM93 °FScattered clouds.5 mph59%29.65 "Hg4 mi
12:59 PM93 °FScattered clouds.5 mph59%29.68 "Hg4 mi
12:29 PM91 °FScattered clouds.3 mph63%29.68 "Hg4 mi
11:55 AM91 °FScattered clouds.3 mph63%29.68 "Hg4 mi
11:25 AM90 °FScattered clouds.N/A67%29.71 "Hg4 mi
10:59 AM90 °FScattered clouds.3 mph67%29.71 "Hg4 mi
10:29 AM90 °FScattered clouds.No wind67%29.71 "Hg4 mi
9:59 AM88 °FPassing clouds.5 mph70%29.71 "Hg4 mi
9:29 AM88 °FClear.5 mph70%29.71 "Hg4 mi
8:59 AM86 °FClear.5 mph75%29.71 "Hg4 mi
8:25 AM84 °FClear.5 mph70%29.71 "Hg4 mi
8:00 AM81 °FClear.5 mph79%29.71 "Hg3 mi
7:25 AM81 °FClear.3 mph79%29.71 "Hg3 mi
7:00 AM79 °FClear.7 mph84%29.71 "Hg3 mi
6:30 AM77 °FClear.5 mph83%29.68 "Hg3 mi
6:00 AM77 °FClear.5 mph83%29.68 "Hg2 mi
4:59 AM77 °FClear.No wind79%29.68 "Hg2 mi
4:30 AM77 °FClear.5 mph79%29.68 "Hg2 mi
4:00 AM77 °FClear.3 mph79%29.65 "Hg2 mi
3:30 AM79 °FClear.3 mph74%29.65 "Hg2 mi
2:55 AM79 °FClear.3 mph74%29.65 "Hg2 mi
2:25 AM79 °FClear.3 mph74%29.65 "Hg2 mi
1:55 AM79 °FClear.No wind74%29.68 "Hg2 mi
1:25 AM79 °FClear.No wind74%29.68 "Hg2 mi
12:55 AM79 °FClear.No wind74%29.65 "Hg2 mi
12:25 AM81 °FClear.No wind70%29.65 "Hg2 mi
11:55 PM
Sep 15
81 °FClear.No wind70%29.65 "Hg2 mi
11:25 PM82 °FClear.3 mph70%29.65 "Hg2 mi
10:55 PM82 °FClear.No wind70%29.65 "Hg2 mi
10:25 PM84 °FClear.No wind70%29.68 "Hg2 mi
9:55 PM84 °FClear.No wind70%29.68 "Hg2 mi
9:25 PM84 °FClear.No wind66%29.68 "Hg2 mi
8:55 PM84 °FClear.No wind66%29.68 "Hg2 mi
8:25 PM84 °FClear.3 mph70%29.68 "Hg2 mi
7:55 PM86 °FClear.3 mph66%29.65 "Hg2 mi
7:25 PM86 °FClear.No wind66%29.65 "Hg2 mi
Weather by CustomWeather, © 2014

See weather overviewHow to use our weather pages